Markham, Ontario

1:02 PM EDT on April 25, 2017 (GMT -0400)
Toronto-Buttonville Municipal

Weather History for CYKZ - January, 2014

Change the Weather History Date:

Friday, January 3, 2014

  Actual Average Record
Temperature  
Mean Temperature -4 °F -  
Max Temperature 8 °F 29 °F 37 °F (2017)
Min Temperature -13 °F 17 °F 10 °F (2016)
Degree Days  
Heating Degree Days 68    
Moisture  
Dew Point -18 °F    
Average Humidity 49    
Maximum Humidity 73    
Minimum Humidity 17    
Precipitation  
Precipitation 0.00 in - - ()
Sea Level Pressure  
Sea Level Pressure 30.35 in    
Wind  
Wind Speed 8 mph ()    
Max Wind Speed 14 mph    
Max Gust Speed -    
Visibility 15.0 miles    
Events      
Averages and records for this station are not official NWS values.
T = Trace of Precipitation, MM = Missing Value Source: Averaged Metar Reports

Daily Weather History Graph

Daily Weather History Graph

Search for Another Location

Airport or City:

Trip Planner

Search our weather history database for the weather conditions in past years. The results will help you decide how hot, cold, wet, or windy it might be!

Date:

Astronomy

Jan. 03, 2014 Rise Set
Actual Time 7:51 AM EST 4:52 PM EST
Civil Twilight 7:19 AM EST 5:25 PM EST
Nautical Twilight 6:42 AM EST 6:01 PM EST
Astronomical Twilight 6:07 AM EST 6:36 PM EST
Moon 9:10 AM EST (1/3) 8:06 PM EST (1/3)
Length of Visible Light 10h 06m
Length of Day
9h 00m
Waxing Crescent, 8% of the Moon is Illuminated
Jan 3
Waxing Crescent
Jan 7
First Quarter
Jan 15
Full
Jan 24
Last Quarter
Jan 30
New

Hourly Weather History & Observations

Time (EST) Temp. Windchill Dew Point Humidity Pressure Visibility Wind Dir Wind Speed Gust Speed Precip Events Conditions
12:00 AM -5.8 °F -25.2 °F -18.4 °F 55% 30.19 in 15.0 mi North 12.7 mph - N/A   Mostly Cloudy
1:00 AM -6 °F - -20 °F 34% 30.20 in 15 mi North 11.5 mph - -   Partly Cloudy
1:00 AM -5.8 °F -24.4 °F -20.2 °F 50% 30.20 in 15.0 mi North 11.5 mph - N/A   Mostly Cloudy
2:00 AM -7.6 °F -26.6 °F -20.2 °F 54% 30.22 in 15.0 mi NNW 11.5 mph - N/A   Partly Cloudy
3:00 AM -9.4 °F -30.6 °F -22.0 °F 54% 30.25 in 15.0 mi NNW 13.8 mph - N/A   Clear
4:00 AM -11.2 °F -31.1 °F -22.0 °F 59% 30.26 in 15.0 mi NNW 11.5 mph - N/A   Clear
5:00 AM -11.2 °F -30.1 °F -23.8 °F 54% 30.28 in 15.0 mi NNW 10.4 mph - N/A   Clear
6:00 AM -11.2 °F -30.1 °F -23.8 °F 54% 30.31 in 15.0 mi North 10.4 mph - N/A   Clear
7:00 AM -13 °F - -25 °F 37% 30.35 in 15 mi North 8.1 mph - -  
7:00 AM -13.0 °F -30.0 °F -25.6 °F 53% 30.35 in 15.0 mi North 8.1 mph - N/A   Clear
8:00 AM -13.0 °F -31.3 °F -25.6 °F 53% 30.37 in 15.0 mi North 9.2 mph - N/A   Partly Cloudy
9:00 AM -13.0 °F -33.4 °F -25.6 °F 53% 30.40 in 15.0 mi NNW 11.5 mph - N/A   Partly Cloudy
10:00 AM -9.4 °F -24.3 °F -23.8 °F 49% 30.43 in 15.0 mi NNW 6.9 mph - N/A   Partly Cloudy
11:00 AM -5.8 °F -18.4 °F -22.0 °F 46% 30.42 in 15.0 mi NNW 5.8 mph - N/A   Partly Cloudy
12:00 PM -0.4 °F -8.3 °F -20.2 °F 39% 30.41 in 15.0 mi NW 3.5 mph - N/A   Partly Cloudy
1:00 PM 2 °F - -21 °F 17% 30.41 in 15 mi NW 5.8 mph - -   Scattered Clouds
1:00 PM 1.4 °F -9.9 °F -20.2 °F 36% 30.41 in 15.0 mi NW 5.8 mph - N/A   Partly Cloudy
2:00 PM 3.2 °F -6.2 °F -20.2 °F 33% 30.40 in 15.0 mi NW 4.6 mph - N/A   Partly Cloudy
3:00 PM 3.2 °F -4.2 °F -18.4 °F 36% 30.41 in 15.0 mi SW 3.5 mph - N/A   Partly Cloudy
4:00 PM 5.0 °F - -14.8 °F 40% 30.42 in 15.0 mi West 2.3 mph - N/A   Partly Cloudy
5:00 PM 3.2 °F -4.2 °F -11.2 °F 51% 30.42 in 15.0 mi SSE 3.5 mph - N/A   Partly Cloudy
6:00 PM 3.2 °F -4.2 °F -11.2 °F 51% 30.41 in 15.0 mi ESE 3.5 mph - N/A   Partly Cloudy
7:00 PM 0 °F - -10 °F 46% 30.40 in 15 mi South 3.5 mph - -   Scattered Clouds
7:00 PM -0.4 °F -10.4 °F -11.2 °F 60% 30.40 in 15.0 mi South 4.6 mph - N/A   Partly Cloudy
8:00 PM 5.0 °F -6.9 °F -5.8 °F 61% 30.40 in 15.0 mi SW 6.9 mph - N/A   Clear
9:00 PM 5.0 °F -6.9 °F -5.8 °F 61% 30.36 in 15.0 mi SSW 6.9 mph - N/A   Clear
10:00 PM 6.8 °F -2.0 °F -4.0 °F 61% 30.33 in 15.0 mi SSW 4.6 mph - N/A   Mostly Cloudy
11:00 PM 8.6 °F -2.6 °F 1.4 °F 73% 30.29 in 15.0 mi SSW 6.9 mph - N/A   Mostly Cloudy